Time,TemperatureF,DewpointF,PressureIn,WindDirection,WindDirectionDegrees,WindSpeedMPH,WindSpeedGustMPH,Humidity,HourlyPrecipIn,Conditions,Clouds,dailyrainin,SoftwareType,DateUTC
2013-06-27 00:05:00,70.5,66.8,29.79,South,182,1.0,2.0,88,0.00,,,0.00,Wunderground v.1.15,2013-06-27 04:05:00,
2013-06-27 00:10:00,70.3,66.9,29.78,South,190,2.0,2.0,89,0.00,,,0.00,Wunderground v.1.15,2013-06-27 04:10:00,
2013-06-27 00:15:00,70.3,66.9,29.78,SSW,192,1.0,2.0,89,0.00,,,0.00,Wunderground v.1.15,2013-06-27 04:15:00,
2013-06-27 00:20:00,70.1,66.7,29.78,SSW,202,1.0,1.0,89,0.00,,,0.00,Wunderground v.1.15,2013-06-27 04:20:00,
2013-06-27 00:30:00,70.1,66.7,29.78,East,83,0.0,0.0,89,0.00,,,0.00,Wunderground v.1.15,2013-06-27 04:30:00,
2013-06-27 00:35:00,70.1,66.7,29.78,SE,142,0.0,2.0,89,0.00,,,0.00,Wunderground v.1.15,2013-06-27 04:35:00,
2013-06-27 00:40:00,70.0,66.6,29.78,SE,141,0.0,0.0,89,0.00,,,0.00,Wunderground v.1.15,2013-06-27 04:40:00,
2013-06-27 00:45:00,69.9,66.5,29.77,SE,141,1.0,1.0,89,0.00,,,0.00,Wunderground v.1.15,2013-06-27 04:45:00,
2013-06-27 00:50:00,69.9,66.8,29.77,SE,146,0.0,0.0,90,0.00,,,0.00,Wunderground v.1.15,2013-06-27 04:50:00,
2013-06-27 01:00:00,69.7,66.6,29.78,SE,141,1.0,1.0,90,0.00,,,0.00,Wunderground v.1.15,2013-06-27 05:00:00,
2013-06-27 01:10:00,69.5,66.4,29.78,South,173,1.0,1.0,90,0.00,,,0.00,Wunderground v.1.15,2013-06-27 05:10:00,
2013-06-27 01:20:00,69.3,66.2,29.78,SSE,161,1.0,2.0,90,0.00,,,0.00,Wunderground v.1.15,2013-06-27 05:20:00,
2013-06-27 01:30:00,69.0,65.9,29.78,ESE,117,1.0,1.0,90,0.00,,,0.00,Wunderground v.1.15,2013-06-27 05:30:00,
2013-06-27 01:40:00,69.0,66.3,29.78,SE,144,1.0,1.0,91,0.00,,,0.00,Wunderground v.1.15,2013-06-27 05:40:00,
2013-06-27 01:50:00,69.0,66.3,29.78,East,86,1.0,2.0,91,0.00,,,0.00,Wunderground v.1.15,2013-06-27 05:50:00,
2013-06-27 02:00:00,68.6,65.9,29.79,ESE,122,2.0,2.0,91,0.00,,,0.00,Wunderground v.1.15,2013-06-27 06:00:00,
2013-06-27 02:10:00,68.2,65.8,29.79,ESE,113,2.0,2.0,92,0.00,,,0.00,Wunderground v.1.15,2013-06-27 06:10:00,
2013-06-27 02:20:00,67.9,65.5,29.79,East,94,2.0,2.0,92,0.00,,,0.00,Wunderground v.1.15,2013-06-27 06:20:00,
2013-06-27 02:30:00,67.8,65.7,29.78,East,87,1.0,1.0,93,0.00,,,0.00,Wunderground v.1.15,2013-06-27 06:30:00,
2013-06-27 02:40:00,67.4,65.3,29.78,SE,130,2.0,2.0,93,0.00,,,0.00,Wunderground v.1.15,2013-06-27 06:40:00,
2013-06-27 02:50:00,67.1,65.0,29.78,ESE,118,2.0,2.0,93,0.00,,,0.00,Wunderground v.1.15,2013-06-27 06:50:00,
2013-06-27 02:55:00,67.0,64.9,29.78,SE,130,2.0,2.0,93,0.00,,,0.00,Wunderground v.1.15,2013-06-27 06:55:00,
2013-06-27 03:05:00,66.9,65.1,29.78,SE,131,1.0,1.0,94,0.00,,,0.00,Wunderground v.1.15,2013-06-27 07:05:00,
2013-06-27 03:15:00,66.8,65.0,29.78,East,95,1.0,2.0,94,0.00,,,0.00,Wunderground v.1.15,2013-06-27 07:15:00,
2013-06-27 03:25:00,66.6,64.8,29.78,SE,146,1.0,1.0,94,0.00,,,0.00,Wunderground v.1.15,2013-06-27 07:25:00,
2013-06-27 03:30:00,66.6,64.8,29.77,East,92,1.0,2.0,94,0.00,,,0.00,Wunderground v.1.15,2013-06-27 07:30:00,
2013-06-27 03:35:00,66.6,64.8,29.77,East,91,1.0,2.0,94,0.00,,,0.00,Wunderground v.1.15,2013-06-27 07:35:00,
2013-06-27 03:45:00,66.6,64.8,29.77,ESE,109,1.0,4.0,94,0.00,,,0.00,Wunderground v.1.15,2013-06-27 07:45:00,
2013-06-27 03:55:00,66.4,64.6,29.77,East,90,2.0,2.0,94,0.00,,,0.00,Wunderground v.1.15,2013-06-27 07:55:00,
2013-06-27 04:05:00,65.8,63.7,29.77,ENE,67,2.0,4.0,93,0.00,,,0.00,Wunderground v.1.15,2013-06-27 08:05:00,
2013-06-27 04:10:00,65.5,63.7,29.77,East,100,3.0,3.0,94,0.00,,,0.00,Wunderground v.1.15,2013-06-27 08:10:00,
2013-06-27 04:20:00,65.1,63.3,29.77,SE,132,3.0,3.0,94,0.00,,,0.00,Wunderground v.1.15,2013-06-27 08:20:00,
2013-06-27 04:25:00,64.9,63.1,29.77,ESE,103,3.0,3.0,94,0.00,,,0.00,Wunderground v.1.15,2013-06-27 08:25:00,
2013-06-27 04:35:00,64.6,62.8,29.77,NE,37,3.0,4.0,94,0.00,,,0.00,Wunderground v.1.15,2013-06-27 08:35:00,
2013-06-27 04:40:00,64.3,62.5,29.76,ESE,123,3.0,3.0,94,0.00,,,0.00,Wunderground v.1.15,2013-06-27 08:40:00,
2013-06-27 04:50:00,64.1,62.3,29.76,NE,47,3.0,3.0,94,0.00,,,0.00,Wunderground v.1.15,2013-06-27 08:50:00,
2013-06-27 04:55:00,64.0,62.2,29.76,NE,49,2.0,3.0,94,0.00,,,0.00,Wunderground v.1.15,2013-06-27 08:55:00,
2013-06-27 05:05:00,63.7,61.9,29.76,East,95,2.0,2.0,94,0.00,,,0.00,Wunderground v.1.15,2013-06-27 09:05:00,
2013-06-27 05:10:00,63.6,62.1,29.77,ESE,114,2.0,3.0,95,0.00,,,0.00,Wunderground v.1.15,2013-06-27 09:10:00,
2013-06-27 05:15:00,63.6,62.1,29.77,SE,132,2.0,3.0,95,0.00,,,0.00,Wunderground v.1.15,2013-06-27 09:15:00,
2013-06-27 05:25:00,63.5,62.0,29.78,SE,146,2.0,3.0,95,0.00,,,0.00,Wunderground v.1.15,2013-06-27 09:25:00,
2013-06-27 05:30:00,63.6,62.1,29.79,ESE,121,2.0,2.0,95,0.00,,,0.00,Wunderground v.1.15,2013-06-27 09:30:00,
2013-06-27 05:35:00,63.6,61.8,29.79,SE,127,1.0,2.0,94,0.00,,,0.00,Wunderground v.1.15,2013-06-27 09:35:00,
2013-06-27 05:45:00,63.7,61.9,29.79,East,90,2.0,2.0,94,0.00,,,0.00,Wunderground v.1.15,2013-06-27 09:45:00,
2013-06-27 05:55:00,63.6,61.8,29.80,East,88,2.0,3.0,94,0.00,,,0.00,Wunderground v.1.15,2013-06-27 09:55:00,
2013-06-27 06:00:00,63.5,61.7,29.80,East,101,2.0,2.0,94,0.00,,,0.00,Wunderground v.1.15,2013-06-27 10:00:00,
2013-06-27 06:05:00,63.5,61.7,29.80,ESE,117,2.0,2.0,94,0.00,,,0.00,Wunderground v.1.15,2013-06-27 10:05:00,
2013-06-27 06:15:00,63.4,61.6,29.81,NE,49,2.0,2.0,94,0.00,,,0.00,Wunderground v.1.15,2013-06-27 10:15:00,
2013-06-27 06:20:00,63.5,61.7,29.81,ESE,122,2.0,2.0,94,0.00,,,0.00,Wunderground v.1.15,2013-06-27 10:20:00,
2013-06-27 06:30:00,63.4,61.6,29.81,East,80,2.0,2.0,94,0.00,,,0.00,Wunderground v.1.15,2013-06-27 10:30:00,
2013-06-27 06:40:00,63.5,61.7,29.81,ESE,115,1.0,2.0,94,0.00,,,0.00,Wunderground v.1.15,2013-06-27 10:40:00,
2013-06-27 06:50:00,63.4,61.6,29.81,East,94,2.0,2.0,94,0.00,,,0.00,Wunderground v.1.15,2013-06-27 10:50:00,
2013-06-27 07:00:00,63.5,61.7,29.81,ESE,115,1.0,1.0,94,0.00,,,0.00,Wunderground v.1.15,2013-06-27 11:00:00,
2013-06-27 07:05:00,63.5,61.7,29.81,SE,126,2.0,2.0,94,0.00,,,0.00,Wunderground v.1.15,2013-06-27 11:05:00,
2013-06-27 07:15:00,63.4,61.6,29.81,NE,55,2.0,2.0,94,0.00,,,0.00,Wunderground v.1.15,2013-06-27 11:15:00,
2013-06-27 07:20:00,63.4,61.6,29.81,SE,135,2.0,4.0,94,0.00,,,0.00,Wunderground v.1.15,2013-06-27 11:20:00,
2013-06-27 07:30:00,63.4,61.6,29.81,East,82,2.0,2.0,94,0.00,,,0.00,Wunderground v.1.15,2013-06-27 11:30:00,
2013-06-27 07:35:00,63.5,61.7,29.82,SE,131,1.0,2.0,94,0.00,,,0.00,Wunderground v.1.15,2013-06-27 11:35:00,
2013-06-27 07:45:00,63.5,61.7,29.81,SE,132,2.0,2.0,94,0.00,,,0.00,Wunderground v.1.15,2013-06-27 11:45:00,
2013-06-27 07:50:00,63.5,61.4,29.81,SE,131,2.0,2.0,93,0.00,,,0.00,Wunderground v.1.15,2013-06-27 11:50:00,
2013-06-27 08:00:00,63.6,61.8,29.81,ENE,69,1.0,2.0,94,0.00,,,0.00,Wunderground v.1.15,2013-06-27 12:00:00,
2013-06-27 08:05:00,63.5,61.4,29.81,East,101,1.0,2.0,93,0.00,,,0.00,Wunderground v.1.15,2013-06-27 12:05:00,
2013-06-27 08:10:00,63.6,61.8,29.81,ESE,116,2.0,2.0,94,0.00,,,0.00,Wunderground v.1.15,2013-06-27 12:10:00,
2013-06-27 08:20:00,63.5,61.7,29.81,ENE,62,2.0,2.0,94,0.00,,,0.00,Wunderground v.1.15,2013-06-27 12:20:00,
2013-06-27 08:25:00,63.9,62.1,29.80,ESE,109,2.0,2.0,94,0.00,,,0.00,Wunderground v.1.15,2013-06-27 12:25:00,
2013-06-27 08:35:00,64.7,62.6,29.81,ESE,117,1.0,2.0,93,0.00,,,0.00,Wunderground v.1.15,2013-06-27 12:35:00,
2013-06-27 08:45:00,65.4,62.7,29.81,ESE,116,1.0,2.0,91,0.00,,,0.00,Wunderground v.1.15,2013-06-27 12:45:00,
2013-06-27 08:50:00,65.6,62.6,29.80,ESE,111,1.0,1.0,90,0.00,,,0.00,Wunderground v.1.15,2013-06-27 12:50:00,
2013-06-27 09:00:00,66.4,63.1,29.80,SE,138,2.0,2.0,89,0.00,,,0.00,Wunderground v.1.15,2013-06-27 13:00:00,
2013-06-27 09:05:00,66.8,63.1,29.80,ESE,111,1.0,2.0,88,0.00,,,0.00,Wunderground v.1.15,2013-06-27 13:05:00,
2013-06-27 09:15:00,67.2,63.2,29.79,ESE,112,1.0,1.0,87,0.00,,,0.00,Wunderground v.1.15,2013-06-27 13:15:00,
2013-06-27 09:20:00,67.5,63.5,29.79,SE,130,1.0,2.0,87,0.00,,,0.00,Wunderground v.1.15,2013-06-27 13:20:00,
2013-06-27 09:30:00,67.6,63.3,29.79,East,100,2.0,3.0,86,0.00,,,0.00,Wunderground v.1.15,2013-06-27 13:30:00,
2013-06-27 09:35:00,67.6,63.6,29.79,SE,126,3.0,3.0,87,0.00,,,0.00,Wunderground v.1.15,2013-06-27 13:35:00,
2013-06-27 09:45:00,67.7,63.7,29.79,SE,136,3.0,4.0,87,0.00,,,0.00,Wunderground v.1.15,2013-06-27 13:45:00,
2013-06-27 09:50:00,67.6,63.9,29.79,SSE,155,3.0,3.0,88,0.00,,,0.00,Wunderground v.1.15,2013-06-27 13:50:00,
2013-06-27 09:55:00,67.7,64.0,29.79,SE,128,3.0,3.0,88,0.00,,,0.00,Wunderground v.1.15,2013-06-27 13:55:00,
2013-06-27 10:05:00,68.0,64.0,29.79,East,85,3.0,3.0,87,0.00,,,0.00,Wunderground v.1.15,2013-06-27 14:05:00,
2013-06-27 10:10:00,68.1,64.1,29.79,ESE,115,2.0,3.0,87,0.00,,,0.00,Wunderground v.1.15,2013-06-27 14:10:00,
2013-06-27 10:20:00,67.8,63.8,29.79,NE,45,2.0,4.0,87,0.00,,,0.00,Wunderground v.1.15,2013-06-27 14:20:00,
2013-06-27 10:25:00,68.0,64.0,29.78,ESE,122,2.0,4.0,87,0.00,,,0.00,Wunderground v.1.15,2013-06-27 14:25:00,
2013-06-27 10:35:00,68.0,64.0,29.78,ESE,117,2.0,2.0,87,0.00,,,0.00,Wunderground v.1.15,2013-06-27 14:35:00,
2013-06-27 10:40:00,68.0,64.0,29.78,SE,138,1.0,3.0,87,0.00,,,0.00,Wunderground v.1.15,2013-06-27 14:40:00,
2013-06-27 10:45:00,68.2,64.2,29.79,East,94,2.0,3.0,87,0.00,,,0.00,Wunderground v.1.15,2013-06-27 14:45:00,
2013-06-27 10:55:00,68.2,64.2,29.79,East,88,2.0,2.0,87,0.00,,,0.00,Wunderground v.1.15,2013-06-27 14:55:00,
2013-06-27 11:05:00,68.1,63.8,29.78,SE,127,2.0,3.0,86,0.00,,,0.00,Wunderground v.1.15,2013-06-27 15:05:00,
2013-06-27 11:10:00,67.9,63.9,29.78,SE,141,3.0,3.0,87,0.00,,,0.00,Wunderground v.1.15,2013-06-27 15:10:00,
2013-06-27 11:15:00,68.1,64.1,29.78,East,96,3.0,3.0,87,0.00,,,0.00,Wunderground v.1.15,2013-06-27 15:15:00,
2013-06-27 11:20:00,68.1,64.1,29.78,East,92,2.0,2.0,87,0.00,,,0.00,Wunderground v.1.15,2013-06-27 15:20:00,
2013-06-27 11:25:00,67.7,63.7,29.78,SE,132,2.0,2.0,87,0.00,,,0.00,Wunderground v.1.15,2013-06-27 15:25:00,
2013-06-27 11:30:00,67.9,63.9,29.78,SE,144,3.0,3.0,87,0.00,,,0.00,Wunderground v.1.15,2013-06-27 15:30:00,
2013-06-27 11:35:00,67.9,63.9,29.78,ESE,122,2.0,3.0,87,0.00,,,0.00,Wunderground v.1.15,2013-06-27 15:35:00,
2013-06-27 11:40:00,68.1,64.4,29.78,SE,139,2.0,2.0,88,0.00,,,0.00,Wunderground v.1.15,2013-06-27 15:40:00,
2013-06-27 11:45:00,68.2,64.2,29.78,East,84,2.0,3.0,87,0.00,,,0.00,Wunderground v.1.15,2013-06-27 15:45:00,
2013-06-27 11:55:00,68.3,64.3,29.77,SE,131,3.0,3.0,87,0.00,,,0.00,Wunderground v.1.15,2013-06-27 15:55:00,
2013-06-27 12:00:00,68.6,64.6,29.78,ESE,110,2.0,2.0,87,0.00,,,0.00,Wunderground v.1.15,2013-06-27 16:00:00,
2013-06-27 12:10:00,68.7,64.7,29.78,ESE,112,2.0,2.0,87,0.00,,,0.00,Wunderground v.1.15,2013-06-27 16:10:00,
2013-06-27 12:15:00,68.9,64.5,29.78,ESE,117,2.0,2.0,86,0.00,,,0.00,Wunderground v.1.15,2013-06-27 16:15:00,
2013-06-27 12:20:00,68.7,64.7,29.77,ESE,105,2.0,3.0,87,0.00,,,0.00,Wunderground v.1.15,2013-06-27 16:20:00,
2013-06-27 12:30:00,69.5,65.1,29.78,SE,134,2.0,3.0,86,0.00,,,0.00,Wunderground v.1.15,2013-06-27 16:30:00,
2013-06-27 12:35:00,69.6,65.2,29.77,SE,141,2.0,3.0,86,0.00,,,0.00,Wunderground v.1.15,2013-06-27 16:35:00,
2013-06-27 12:40:00,69.8,65.1,29.77,SE,132,3.0,3.0,85,0.00,,,0.00,Wunderground v.1.15,2013-06-27 16:40:00,
2013-06-27 12:45:00,69.7,65.0,29.77,SSW,202,3.0,3.0,85,0.00,,,0.00,Wunderground v.1.15,2013-06-27 16:45:00,
2013-06-27 12:55:00,70.2,65.5,29.77,SE,127,1.0,3.0,85,0.00,,,0.00,Wunderground v.1.15,2013-06-27 16:55:00,
2013-06-27 13:00:00,70.3,65.2,29.76,SE,137,2.0,2.0,84,0.00,,,0.00,Wunderground v.1.15,2013-06-27 17:00:00,
2013-06-27 13:05:00,70.5,65.8,29.76,SE,137,1.0,2.0,85,0.00,,,0.00,Wunderground v.1.15,2013-06-27 17:05:00,
2013-06-27 13:15:00,70.8,65.7,29.76,SSW,192,2.0,2.0,84,0.00,,,0.00,Wunderground v.1.15,2013-06-27 17:15:00,
2013-06-27 13:25:00,71.3,65.9,29.76,East,86,1.0,2.0,83,0.00,,,0.00,Wunderground v.1.15,2013-06-27 17:25:00,
2013-06-27 13:35:00,71.7,65.9,29.76,ESE,106,1.0,3.0,82,0.00,,,0.00,Wunderground v.1.15,2013-06-27 17:35:00,
2013-06-27 13:45:00,72.0,65.8,29.76,East,85,3.0,3.0,81,0.00,,,0.00,Wunderground v.1.15,2013-06-27 17:45:00,
2013-06-27 13:50:00,72.1,66.3,29.75,SE,138,3.0,3.0,82,0.00,,,0.00,Wunderground v.1.15,2013-06-27 17:50:00,
2013-06-27 13:55:00,72.3,66.1,29.76,SE,134,2.0,3.0,81,0.00,,,0.00,Wunderground v.1.15,2013-06-27 17:55:00,
2013-06-27 14:00:00,72.7,66.2,29.76,ESE,119,2.0,2.0,80,0.00,,,0.00,Wunderground v.1.15,2013-06-27 18:00:00,
2013-06-27 14:05:00,72.1,65.9,29.76,SE,132,2.0,4.0,81,0.00,,,0.00,Wunderground v.1.15,2013-06-27 18:05:00,
2013-06-27 14:15:00,71.9,65.8,29.76,SE,128,3.0,3.0,81,0.00,,,0.00,Wunderground v.1.15,2013-06-27 18:15:00,
2013-06-27 14:25:00,71.7,65.9,29.76,SE,131,3.0,3.0,82,0.00,,,0.00,Wunderground v.1.15,2013-06-27 18:25:00,
2013-06-27 14:35:00,71.3,65.5,29.76,East,101,3.0,5.0,82,0.00,,,0.00,Wunderground v.1.15,2013-06-27 18:35:00,
2013-06-27 14:45:00,70.4,65.7,29.76,East,92,2.0,3.0,85,0.32,,,0.02,Wunderground v.1.15,2013-06-27 18:45:00,
2013-06-27 14:55:00,68.9,65.2,29.76,ESE,111,3.0,3.0,88,0.14,,,0.06,Wunderground v.1.15,2013-06-27 18:55:00,
2013-06-27 15:00:00,68.5,65.1,29.76,SE,136,3.0,3.0,89,0.09,,,0.06,Wunderground v.1.15,2013-06-27 19:00:00,
2013-06-27 15:05:00,68.3,65.3,29.77,SE,138,3.0,3.0,90,0.05,,,0.06,Wunderground v.1.15,2013-06-27 19:05:00,
2013-06-27 15:10:00,68.1,65.1,29.77,SE,125,2.0,2.0,90,0.04,,,0.06,Wunderground v.1.15,2013-06-27 19:10:00,
2013-06-27 15:15:00,68.0,65.0,29.77,ESE,109,2.0,2.0,90,0.00,,,0.06,Wunderground v.1.15,2013-06-27 19:15:00,
2013-06-27 15:25:00,67.6,64.6,29.77,SE,140,2.0,5.0,90,0.00,,,0.06,Wunderground v.1.15,2013-06-27 19:25:00,
2013-06-27 15:35:00,67.6,64.9,29.77,SE,129,2.0,2.0,91,0.00,,,0.06,Wunderground v.1.15,2013-06-27 19:35:00,
2013-06-27 15:40:00,67.6,64.9,29.76,ESE,121,2.0,2.0,91,0.27,,,0.08,Wunderground v.1.15,2013-06-27 19:40:00,
2013-06-27 15:45:00,67.5,64.8,29.76,ESE,113,2.0,3.0,91,0.16,,,0.09,Wunderground v.1.15,2013-06-27 19:45:00,
2013-06-27 15:55:00,67.4,65.0,29.76,SE,141,2.0,3.0,92,0.09,,,0.10,Wunderground v.1.15,2013-06-27 19:55:00,
2013-06-27 16:05:00,67.1,64.7,29.76,ESE,123,3.0,4.0,92,0.04,,,0.10,Wunderground v.1.15,2013-06-27 20:05:00,
2013-06-27 16:10:00,67.3,64.9,29.75,East,96,2.0,2.0,92,0.00,,,0.10,Wunderground v.1.15,2013-06-27 20:10:00,
2013-06-27 16:20:00,67.1,64.7,29.75,SE,134,3.0,3.0,92,0.00,,,0.10,Wunderground v.1.15,2013-06-27 20:20:00,
2013-06-27 16:25:00,66.8,64.4,29.75,SE,134,3.0,3.0,92,0.00,,,0.10,Wunderground v.1.15,2013-06-27 20:25:00,
2013-06-27 16:30:00,66.9,64.8,29.75,SE,128,3.0,3.0,93,0.00,,,0.10,Wunderground v.1.15,2013-06-27 20:30:00,
2013-06-27 16:40:00,66.7,64.3,29.75,SSE,148,2.0,4.0,92,0.00,,,0.10,Wunderground v.1.15,2013-06-27 20:40:00,
2013-06-27 16:50:00,66.5,64.4,29.74,ESE,106,3.0,3.0,93,0.00,,,0.10,Wunderground v.1.15,2013-06-27 20:50:00,
2013-06-27 17:00:00,66.2,64.1,29.75,East,84,3.0,5.0,93,0.00,,,0.10,Wunderground v.1.15,2013-06-27 21:00:00,
2013-06-27 17:05:00,66.2,64.1,29.74,ESE,115,3.0,5.0,93,0.00,,,0.10,Wunderground v.1.15,2013-06-27 21:05:00,
2013-06-27 17:15:00,66.2,64.1,29.74,SSE,155,3.0,5.0,93,0.00,,,0.10,Wunderground v.1.15,2013-06-27 21:15:00,
2013-06-27 17:25:00,66.1,63.7,29.74,SE,133,3.0,3.0,92,0.00,,,0.10,Wunderground v.1.15,2013-06-27 21:25:00,
2013-06-27 17:35:00,65.9,63.5,29.74,East,80,4.0,4.0,92,0.00,,,0.10,Wunderground v.1.15,2013-06-27 21:35:00,
2013-06-27 17:45:00,65.9,63.5,29.74,SE,130,3.0,3.0,92,0.00,,,0.10,Wunderground v.1.15,2013-06-27 21:45:00,
2013-06-27 17:50:00,65.8,63.4,29.74,SE,129,3.0,3.0,92,0.00,,,0.10,Wunderground v.1.15,2013-06-27 21:50:00,
2013-06-27 17:55:00,65.8,63.4,29.74,SE,124,3.0,3.0,92,0.00,,,0.10,Wunderground v.1.15,2013-06-27 21:55:00,
2013-06-27 18:05:00,65.7,63.3,29.74,East,89,3.0,3.0,92,0.00,,,0.10,Wunderground v.1.15,2013-06-27 22:05:00,
2013-06-27 18:10:00,65.7,63.3,29.74,East,99,3.0,3.0,92,0.00,,,0.10,Wunderground v.1.15,2013-06-27 22:10:00,
2013-06-27 18:20:00,65.8,63.4,29.74,SE,138,2.0,4.0,92,0.00,,,0.10,Wunderground v.1.15,2013-06-27 22:20:00,
2013-06-27 18:30:00,65.5,63.1,29.74,SE,133,2.0,3.0,92,0.00,,,0.10,Wunderground v.1.15,2013-06-27 22:30:00,
2013-06-27 18:40:00,65.4,63.3,29.74,SE,146,2.0,2.0,93,0.00,,,0.10,Wunderground v.1.15,2013-06-27 22:40:00,
2013-06-27 18:55:00,65.2,63.1,29.74,NE,51,3.0,3.0,93,0.00,,,0.10,Wunderground v.1.15,2013-06-27 22:55:00,
2013-06-27 19:05:00,65.2,63.4,29.74,SSE,159,2.0,3.0,94,0.00,,,0.11,Wunderground v.1.15,2013-06-27 23:05:00,
2013-06-27 19:10:00,65.1,63.3,29.74,SE,142,3.0,4.0,94,0.00,,,0.11,Wunderground v.1.15,2013-06-27 23:10:00,
2013-06-27 19:20:00,65.0,63.2,29.73,East,96,3.0,3.0,94,0.00,,,0.11,Wunderground v.1.15,2013-06-27 23:20:00,
2013-06-27 19:25:00,65.1,63.3,29.73,SE,143,2.0,3.0,94,0.00,,,0.11,Wunderground v.1.15,2013-06-27 23:25:00,
2013-06-27 19:35:00,65.0,63.2,29.74,SE,137,2.0,2.0,94,0.00,,,0.11,Wunderground v.1.15,2013-06-27 23:35:00,
2013-06-27 19:45:00,65.0,63.2,29.73,ESE,115,2.0,3.0,94,0.00,,,0.11,Wunderground v.1.15,2013-06-27 23:45:00,
2013-06-27 19:50:00,65.0,63.2,29.73,ESE,105,3.0,3.0,94,0.00,,,0.11,Wunderground v.1.15,2013-06-27 23:50:00,
2013-06-27 20:00:00,64.9,63.1,29.74,SE,132,3.0,4.0,94,0.00,,,0.11,Wunderground v.1.15,2013-06-28 00:00:00,
2013-06-27 20:05:00,64.9,63.4,29.74,SE,132,3.0,4.0,95,0.00,,,0.11,Wunderground v.1.15,2013-06-28 00:05:00,
2013-06-27 20:15:00,64.9,63.4,29.73,ESE,107,2.0,2.0,95,0.00,,,0.11,Wunderground v.1.15,2013-06-28 00:15:00,
2013-06-27 20:25:00,64.9,63.4,29.74,East,94,2.0,3.0,95,0.00,,,0.11,Wunderground v.1.15,2013-06-28 00:25:00,
2013-06-27 20:35:00,65.0,63.5,29.73,ESE,109,2.0,3.0,95,0.00,,,0.11,Wunderground v.1.15,2013-06-28 00:35:00,
2013-06-27 20:40:00,64.9,63.4,29.73,ESE,119,2.0,3.0,95,0.00,,,0.11,Wunderground v.1.15,2013-06-28 00:40:00,
2013-06-27 20:55:00,64.8,63.3,29.73,ESE,103,2.0,4.0,95,0.00,,,0.11,Wunderground v.1.15,2013-06-28 00:55:00,
2013-06-27 21:05:00,64.8,63.3,29.73,ENE,71,2.0,2.0,95,0.00,,,0.11,Wunderground v.1.15,2013-06-28 01:05:00,
2013-06-27 21:15:00,64.8,63.3,29.73,ESE,120,1.0,2.0,95,0.00,,,0.11,Wunderground v.1.15,2013-06-28 01:15:00,
2013-06-27 21:25:00,64.8,63.3,29.73,SSE,153,2.0,4.0,95,0.00,,,0.11,Wunderground v.1.15,2013-06-28 01:25:00,
2013-06-27 21:30:00,64.7,63.2,29.73,ENE,58,2.0,3.0,95,0.00,,,0.11,Wunderground v.1.15,2013-06-28 01:30:00,
2013-06-27 21:40:00,64.8,63.3,29.73,ESE,103,2.0,3.0,95,0.00,,,0.11,Wunderground v.1.15,2013-06-28 01:40:00,
2013-06-27 21:45:00,64.7,63.2,29.73,East,90,2.0,3.0,95,0.00,,,0.11,Wunderground v.1.15,2013-06-28 01:45:00,
2013-06-27 21:55:00,64.7,63.2,29.74,SE,134,2.0,3.0,95,0.00,,,0.11,Wunderground v.1.15,2013-06-28 01:55:00,
2013-06-27 22:10:00,64.7,63.2,29.74,SE,129,2.0,5.0,95,0.00,,,0.11,Wunderground v.1.15,2013-06-28 02:10:00,
2013-06-27 22:25:00,64.5,63.0,29.73,East,91,2.0,3.0,95,0.00,,,0.11,Wunderground v.1.15,2013-06-28 02:25:00,
2013-06-27 22:30:00,64.5,63.0,29.73,East,86,3.0,3.0,95,0.00,,,0.11,Wunderground v.1.15,2013-06-28 02:30:00,
2013-06-27 22:40:00,64.5,63.0,29.73,ESE,111,2.0,2.0,95,0.00,,,0.11,Wunderground v.1.15,2013-06-28 02:40:00,
2013-06-27 22:45:00,64.4,62.9,29.72,SSE,151,3.0,3.0,95,0.00,,,0.11,Wunderground v.1.15,2013-06-28 02:45:00,
2013-06-27 22:55:00,64.4,62.9,29.72,SE,138,2.0,3.0,95,0.00,,,0.11,Wunderground v.1.15,2013-06-28 02:55:00,
2013-06-27 23:10:00,64.3,62.8,29.72,SE,135,3.0,3.0,95,0.00,,,0.11,Wunderground v.1.15,2013-06-28 03:10:00,
2013-06-27 23:15:00,64.3,62.8,29.72,East,101,2.0,3.0,95,0.00,,,0.11,Wunderground v.1.15,2013-06-28 03:15:00,
2013-06-27 23:25:00,64.4,62.9,29.71,SE,130,2.0,2.0,95,0.00,,,0.11,Wunderground v.1.15,2013-06-28 03:25:00,
2013-06-27 23:35:00,64.3,62.8,29.71,ESE,121,2.0,3.0,95,0.00,,,0.11,Wunderground v.1.15,2013-06-28 03:35:00,
2013-06-27 23:45:00,64.2,62.7,29.70,ESE,111,2.0,2.0,95,0.00,,,0.11,Wunderground v.1.15,2013-06-28 03:45:00,
2013-06-27 23:55:00,64.2,62.7,29.71,SE,145,2.0,4.0,95,0.00,,,0.11,Wunderground v.1.15,2013-06-28 03:55:00,